FW6605 Weather Reports


time (UTC)temp
C
wind
direction
speed
KPH
gust
KPH
rain 1hr
cm
rain 24hr
cm
rain mn
cm
humidity
%
barometer
mb
20260505190054 4 360 16.1 22.5 0.00 0.00 0.00 89 1014.4
20260505184553 4 360 14.5 24.1 0.00 0.00 0.00 90 1014.5
20260505183056 4 360 16.1 25.7 0.00 0.00 0.00 89 1014.6
20260505181555 4 360 16.1 22.5 0.00 0.00 0.00 88 1014.8
20260505180104 4 360 14.5 24.1 0.00 0.00 0.00 87 1015.0
20260505174606 4 360 16.1 24.1 0.00 0.00 0.00 86 1015.1
20260505173054 5 360 12.9 20.9 0.00 0.00 0.00 85 1015.1
20260505171556 5 360 12.9 20.9 0.00 0.00 0.00 84 1015.2
20260505170055 5 360 12.9 20.9 0.00 0.00 0.00 83 1015.3
20260505164606 5 360 17.7 22.5 0.00 0.00 0.00 80 1015.4
20260505163056 5 360 12.9 20.9 0.00 0.00 0.00 79 1015.2
20260505161557 5 360 16.1 25.7 0.00 0.00 0.00 79 1015.3
20260505153057 5 360 16.1 24.1 0.00 0.00 0.00 80 1015.2
20260505151556 5 360 17.7 24.1 0.00 0.00 0.00 80 1015.2
20260505124553 7 360 4.8 17.7 0.00 0.00 0.00 74 1014.0
20260505123101 7 360 1.6 9.7 0.00 0.00 0.00 74 1013.9
20260505121554 7 360 4.8 12.9 0.00 0.00 0.00 73 1013.6
20260505120058 7 360 1.6 6.4 0.00 0.00 0.00 73 1013.5
20260505114600 8 360 3.2 12.9 0.00 0.00 0.00 68 1013.0
20260505113057 7 0 0.0 3.2 0.00 0.00 0.00 71 1012.8
20260505111600 7 0 0.0 0.0 0.00 0.00 0.00 73 1012.9
20260505101608 8 0 0.0 1.6 0.00 0.00 0.00 72 1013.1
20260505100104 7 0 0.0 1.6 0.00 0.00 0.00 78 1013.0
20260505094557 7 0 0.0 0.0 0.00 0.00 0.00 77 1013.2
20260505093104 7 0 0.0 0.0 0.00 0.00 0.00 74 1013.2
20260505091556 7 0 0.0 0.0 0.00 0.00 0.00 73 1013.2
20260505084606 8 0 0.0 3.2 0.00 0.00 0.00 71 1013.1
20260505083059 9 0 0.0 3.2 0.00 0.00 0.00 70 1013.3
20260505081623 9 0 0.0 4.8 0.00 0.00 0.00 70 1013.2
20260505080103 9 360 0.0 6.4 0.00 0.00 0.00 70 1013.1
20260505074559 9 360 9.7 14.5 0.00 0.00 0.00 68 1013.1
20260505073104 10 360 9.7 19.3 0.00 0.00 0.00 69 1013.2
20260505071557 10 360 9.7 17.7 0.00 0.00 0.00 69 1013.1
20260505070059 10 360 11.3 16.1 0.00 0.00 0.00 67 1012.9
20260505064554 10 360 8.0 14.5 0.00 0.00 0.00 67 1012.9
20260505063106 11 360 6.4 14.5 0.00 0.00 0.00 67 1013.2
20260505061554 11 360 8.0 17.7 0.00 0.00 0.00 65 1013.0
20260505054556 11 360 6.4 16.1 0.00 0.00 0.00 64 1013.4
20260505053054 11 360 1.6 8.0 0.00 0.00 0.00 64 1013.2
20260505051553 11 360 1.6 9.7 0.00 0.00 0.00 64 1013.2
20260505041558 12 360 16.1 22.5 0.00 0.00 0.00 59 1012.8
20260505040057 12 360 16.1 22.5 0.00 0.00 0.00 59 1012.5
20260505034555 12 360 17.7 24.1 0.00 0.00 0.00 58 1012.3
20260505033054 12 360 17.7 25.7 0.00 0.00 0.00 57 1012.1
20260505031556 12 360 19.3 32.2 0.00 0.00 0.00 55 1012.2
20260505030106 12 360 19.3 37.0 0.00 0.00 0.00 58 1011.7
20260505024555 13 360 25.7 35.4 0.00 0.00 0.00 52 1011.5
20260505023101 13 360 27.4 43.5 0.00 0.00 0.00 53 1010.9
20260505021554 13 360 32.2 46.7 0.00 0.00 0.00 53 1011.0
20260505020056 13 360 33.8 48.3 0.00 0.00 0.00 51 1010.9
20260505014605 14 360 33.8 48.3 0.00 0.00 0.00 48 1010.5
20260505013057 15 360 43.5 54.7 0.00 0.00 0.00 43 1009.8
20260505011557 16 360 24.1 35.4 0.00 0.00 0.00 38 1009.3
20260505010117 16 360 14.5 27.4 0.00 0.00 0.00 39 1008.9
20260505004557 16 360 20.9 35.4 0.00 0.00 0.00 39 1008.6
20260505003055 17 360 25.7 40.2 0.00 0.00 0.00 38 1008.6
20260505001555 17 360 25.7 41.8 0.00 0.00 0.00 34 1008.6
20260505000056 18 360 17.7 25.7 0.00 0.00 0.00 32 1008.7
20260504234557 18 360 16.1 25.7 0.00 0.00 0.00 32 1008.5
20260504233057 19 360 16.1 40.2 0.00 0.00 0.00 30 1008.6
20260504231557 19 360 25.7 35.4 0.00 0.00 0.00 29 1008.3
20260504230058 19 360 32.2 43.5 0.00 0.00 0.00 31 1008.4
20260504224559 20 360 30.6 45.1 0.00 0.00 0.00 30 1008.0
20260504223103 20 360 17.7 38.6 0.00 0.00 0.00 27 1008.0
20260504221606 21 247 27.4 41.8 0.00 0.00 0.00 23 1007.8
20260504220059 22 212 27.4 43.5 0.00 0.00 0.00 23 1007.7
20260504214605 22 229 25.7 43.5 0.00 0.00 0.00 23 1007.6
20260504213111 22 225 25.7 35.4 0.00 0.00 0.00 22 1007.8
20260504211553 23 232 29.0 41.8 0.00 0.00 0.00 22 1007.9
20260504210058 23 253 30.6 51.5 0.00 0.00 0.00 21 1008.3
20260504204606 23 191 20.9 40.2 0.00 0.00 0.00 19 1008.3
20260504203055 23 227 20.9 33.8 0.00 0.00 0.00 21 1008.5
20260504201557 22 281 8.0 16.1 0.00 0.00 0.00 19 1008.9
20260504200100 22 317 4.8 16.1 0.00 0.00 0.00 18 1008.8
20260504194559 22 28 3.2 14.5 0.00 0.00 0.00 17 1008.9
20260504193102 22 54 11.3 22.5 0.00 0.00 0.00 16 1008.9
20260504191602 22 59 6.4 16.1 0.00 0.00 0.00 17 1009.2